sat.trackr.live / text

‹ back to catalog

GOES 19

NORAD 60133 · 2024-119A

PAYLOAD ACTIVE UNKNOWN

§ Identity

Operator
Country
US
Launch date
2024-06-25
Launch site
AFETR
Launch vehicle
Mass (kg)
RCS (m²)

Purposes: comms, earth_obs

External: N2YO · Heavens-Above · Gunter

§ Orbital elements

Epoch: 2026-05-25T03:23:10.627008Z

Period
1,436.09 min
Inclination
0.0473°
Eccentricity
0.0000398
Mean motion
1.00272601 rev/d
Perigee alt
35,784.7 km
Apogee alt
35,788.0 km
Semi-major
42,164.5 km
B*
0.0000e+0
RAAN
112.8592°
Arg perigee
10.4217°
Mean anomaly
95.0500°
Rev number
673

§ Raw data

GOES 191 60133U 24119A   26145.14109522 -.00000251  00000+0  00000+0 0  99992 60133   0.0473 112.8592 0000398  10.4217  95.0500  1.00272601  6736

JSON: /api/v1/satellites/60133 · /tle

For live sub-satellite position, see the globe view (requires WebGL).

§ Visibility from observer

Set your observer location to see the next 7 days of passes ≥ 10°. The values pass through the URL so the page stays shareable.

No JS? Fill the form by hand. The geolocation button needs JavaScript.

§ Radio — SatNOGS DB

ModeDescriptionDownlinkUplink
BPSK CDA 1.693 GHz
FM GRB 1.682 GHz
FM HRIT 16.941 GHz
FM HRIT 1.694 GHz

4 transmitters · refreshed weekly from db.satnogs.org